Location: Gu�tanj
(46.5431°N, 14.9692°E)
Time: 21:06:43
(UTC+00:00)

Cosmos 1943 Rocket - Pass Details

Date: 03 March 2021
Orbit: 811 x 844 km, 71.0° (Epoch: 20 April)

Event Time Altitude Azimuth Distance (km) Brightness Sun altitude
Rises 19:00:50 0° 341° (NNW) 3,414 5.8 -23.3°
Reaches altitude 10° 19:05:00 10° 10° (N) 2,475 4.7 -23.9°
Enters shadow 19:07:10 12° 33° (NNE) 2,300 4.3 -24.3°
